Regional Weather Roundup
Issued by NWS

Home | Current Version | Previous Version | Text Only | Print | Product List | Glossary On
Versions: 1 2 3 4 5 6 7 8 9 10 11 12 13 14 15 16 17 18 19 20 21 22 23 24 25 26 27 28 29 30 31 32 33 34 35 36 37 38 39 40 41 42 43 44 45 46 47 48 49 50
000
ASUS46 KPQR 190610
RWROR

OREGON REGIONAL WEATHER ROUNDUP
NATIONAL WEATHER SERVICE PORTLAND OR
1100 PM PDT THU SEP 18 2014

NOTE: "FAIR" INDICATES FEW OR NO CLOUDS BELOW 12,000 FEET WITH
NO SIGNIFICANT WEATHER AND/OR OBSTRUCTIONS TO VISIBILITY.

ORZ001>013-190700-
NORTHWEST OREGON


CITY           SKY/WX    TMP DP  RH WIND       PRES   REMARKS
ASTORIA        CLOUDY    62  59  90 W3        30.00R
6HR MIN TEMP:  62; 6HR MAX TEMP:  63;

NEWPORT        PTCLDY    55  54  94 CALM      30.03S
PORTLAND       MOCLDY    65  59  81 W5        29.99R
6HR MIN TEMP:  65; 6HR MAX TEMP:  73;

VANCOUVER WA   MOCLDY    65  57  75 CALM      29.98R
6HR MIN TEMP:  65; 6HR MAX TEMP:  73;

SCAPPOOSE      MOCLDY    62  59  90 N7        29.98R
6HR MIN TEMP:  61; 6HR MAX TEMP:  71; 6HR PCP: TRACE;

HILLSBORO      CLOUDY    61  58  90 NW5       29.98R
6HR MIN TEMP:  61; 6HR MAX TEMP:  72;

AURORA         CLOUDY    66  58  75 N7        29.99R
6HR MIN TEMP:  66; 6HR MAX TEMP:  73;

MCMINNVILLE    PTCLDY    61  56  83 W7        29.99R
6HR MIN TEMP:  61; 6HR MAX TEMP:  74;

SALEM          PTCLDY    65  55  70 W5        29.98R
6HR MIN TEMP:  65; 6HR MAX TEMP:  74;

CORVALLIS      CLEAR     63  55  77 NW7       30.00R
EUGENE         CLEAR     61  54  77 NE3       29.99R
6HR MIN TEMP:  61; 6HR MAX TEMP:  75;

$$

ORZ021-028-190700-
SOUTHWEST OREGON


CITY           SKY/WX    TMP DP  RH WIND       PRES   REMARKS
NORTH BEND     PTCLDY    59  57  94 CALM      30.01S
6HR MIN TEMP:  57; 6HR MAX TEMP:  68;

BROOKINGS      CLEAR     62  60  93 CALM      29.98S
ROSEBURG       CLEAR     66  58  75 N3        29.98R
6HR MIN TEMP:  66; 6HR MAX TEMP:  77; 6HR PCP: TRACE;

SEXTON SUMMIT  CLEAR     55  55 100 N8        30.07R
6HR MIN TEMP:  55; 6HR MAX TEMP:  66;

MEDFORD        CLOUDY    71  57  61 NW5       29.98R
6HR MIN TEMP:  71; 6HR MAX TEMP:  84;

$$

ORZ009-041-190700-
COLUMBIA GORGE


CITY           SKY/WX    TMP DP  RH WIND       PRES   REMARKS
TROUTDALE      CLOUDY    67  59  75 CALM      29.97R
6HR MIN TEMP:  67; 6HR MAX TEMP:  74; 6HR PCP: TRACE;

THE DALLES     CLOUDY    68  54  60 W7        29.93R
6HR MIN TEMP:  67; 6HR MAX TEMP:  75;

$$

ORZ029>031-042>050-061>064-190700-
EASTERN OREGON


CITY           SKY/WX    TMP DP  RH WIND       PRES   REMARKS
REDMOND        PTCLDY    57  49  74 NE3       30.02R
6HR MIN TEMP:  57; 6HR MAX TEMP:  72;

BEND           NOT AVBL
KLAMATH FALLS  CLEAR     60  48  64 CALM      30.04R
6HR MIN TEMP:  58; 6HR MAX TEMP:  72;

LAKEVIEW       CLEAR     54  41  62 N9        30.07R
HERMISTON      PTCLDY    65  52  62 SW13      29.90R
6HR MIN TEMP:  65; 6HR MAX TEMP:  78;

PENDLETON      CLEAR     64  48  56 W16G25    29.93R
6HR MIN TEMP:  64; 6HR MAX TEMP:  77;

JOHN DAY       MOCLDY    63  49  61 NW5       30.02S
MEACHAM        CLEAR     55  48  77 CALM      30.01S
6HR MIN TEMP:  55; 6HR MAX TEMP:  68;

LA GRANDE      MOCLDY    64  45  48 NW8       29.96F
6HR MIN TEMP:  61; 6HR MAX TEMP:  79;

BAKER CITY     CLEAR     58  49  72 S9        29.99R
6HR MIN TEMP:  58; 6HR MAX TEMP:  77;

BURNS          CLEAR     52  42  69 W9        30.02R
6HR MIN TEMP:  52; 6HR MAX TEMP:  78;

ROME             N/A     62  36  37 N7        29.96R
6HR MIN TEMP:  59; 6HR MAX TEMP:  83;

ONTARIO        CLEAR     72  45  37 SW3       29.88R
6HR MIN TEMP:  71; 6HR MAX TEMP:  86;

$$


USA.gov is the U.S. government's official web portal to all federal, state and local government web resources and services.